Find Starlink 32391

NORAD ID: 61855 Int'l Des: 2024-202 Owner: SPXS Country: US Constellation: starlink operational
LEOCIRCULAR

实时位置

正在加载3D地球...

关于 Starlink 32391

正在加载描述...

即将过境

Passes for default location (London). Set your location on the main map for personalized predictions.

高度历史

Loading altitude history...

两行轨道根数

1 61855U 24202L 26126.45204150 .00000035 00000-0 10801-4 0 9995
2 61855 43.0025 271.6083 0000884 267.5684 92.5067 15.27559715 84161
Epoch: May 6, 2026 • Age: 11 hours

当前状态

高度 486.5 km
速度 7.63 km/s
星下点 41.55°N, 142.61°E
发射日期 Nov 7, 2024
运行时间 1.4 years
类型 internet

技术详情

分类 Payload
质量 730.00 kg
干质量 700.00 kg
总质量 730.00 kg
长度 0.30 m
直径 4.10 m
跨度 29.00 m
形状 Box + pan
制造商 SPXS
平台类型 Starlink V2M
阶段状态 In Orbit
所有者/国家 SPXS/US

Most Searched